Location: 10033 Water Well
(34.0865°N, 106.8959°W)
Time: 19:14:01
(UTC+00:00)

Resurs 01 Rocket - Pass Details

Date: 11 April 2026
Orbit: 626 x 636 km, 97.7° (Epoch: 12 May)

Event Time Altitude Azimuth Distance (km) Brightness Sun altitude
Rises 02:43:21 0° 189° (S) 2,911 4.9 -14.4°
Reaches altitude 10° 02:45:45 10° 200° (SSW) 2,006 4.2 -14.8°
Maximum altitude 02:49:37 31° 263° (W) 1,109 3.5 -15.6°
Drops below altitude 10° 02:53:32 10° 326° (NW) 2,013 5.0 -16.3°
Sets 02:55:56 0° 336° (NNW) 2,923 5.8 -16.8°
